COSMOS 252

导读 | 星芒AI

COSMOS 252 是俄罗斯于1992年发射的一颗军用卫星,主要用于电子侦察和信号情报收集。该卫星属于“宇宙”(COSMOS)系列,是苏联及俄罗斯长期部署的军事航天项目之一。COSMOS 252 运行在近地轨道,具备监测通信和雷达信号的能力,支持俄罗斯的军事监视和战略情报需求。尽管其具体任务细节未公开,但该卫星体现了俄罗斯在空间侦察领域的持续投入。

基本信息
目录编号:
3530
目录名称:
COSMOS 252
国际标识:
1968-097A
轨道中心:
EARTH
卫星名称:
COSMOS 252
卫星全名:
--
卫星状态:
在轨 (已飞行20818 天)
发射日期:
1968-11-01 UTC
国别 :
俄罗斯(独联体) (CIS)
星等 :
--
轨道信息
数据来源 国际轨道数据 AOE轨道数据
星历时间 2025-10-30T20:32:49+0800
18小时前
查看轨道信息
2025-10-31T06:00:00+0800
9小时前
查看轨道信息
半长轴 7686.858km 7686.855km
偏心率 0.0994961 0.0995106
轨道倾角 62.325° 62.326°
近地点辐角 8.441° 8.523°
升交点赤经 356.711° 355.743°
平近点角 353.200° 19.780°
近地点 543.91km 543.796km
远地点 2073.536km 2073.644km
周期 111.785分钟 111.785分钟
每日圈数 12.881889 12.881895
详细信息
使用方式:
暂无
2D轨道图
3D轨道图
轨道高度分析图
轨道倾角分析图
轨道综合分析图
查看轨道综合分析图